Location: Bieg
(49.3499°N, 10.3835°E)
Time: 01:58:44
(UTC+00:00)

Cosmos 468 Rocket - Pass Details

Date: 23 May 2024
Orbit: 741 x 777 km, 74.0° (Epoch: 12 June)

Event Time Altitude Azimuth Distance (km) Brightness Sun altitude
Rises 00:40:04 0° 332° (NNW) 3,270 7.9 -17.5°
Reaches altitude 10° 00:42:32 10° 326° (NNW) 2,335 7.0 -17.4°
Maximum altitude 00:47:35 46° 255° (WSW) 1,032 4.4 -17.1°
Enters shadow 00:49:48 29° 201° (SSW) 1,382 4.7 -16.9°
